This demonstration page uses our WeatherBlox Daily Observations layout. Learn more.

Left ArrowRight Arrow

53.62937, 11.41316

Hourly Observations for January 17, 2018

Temp ( °F °C ) Dew Point ( °F °C ) Humidity (%) Winds ( mph kmh ) Pressure ( in mb ) Visibility ( mi km ) Precip ( " mm )
5:20 am 05:20 Cloudy 34 1 32 0 93 93 SSW 8 13 29.18 988 30 48 N/A
5:50 am 05:50 Cloudy 34 1 32 0 93 93 SW 12 19 29.18 988 30 48 N/A
6:20 am 06:20 Cloudy 36 2 32 0 87 87 SW 10 17 29.18 988 30 48 N/A
6:50 am 06:50 Cloudy 36 2 32 0 87 87 SW 9 15 29.18 988 30 48 N/A
7:20 am 07:20 Cloudy 34 1 32 0 93 93 SW 14 22 29.21 989 30 48 N/A
7:50 am 07:50 Cloudy 34 1 32 0 93 93 SW 14 22 29.21 989 30 48 N/A
8:20 am 08:20 Cloudy 34 1 32 0 93 93 SW 14 22 29.21 989 30 48 N/A
9:20 am 09:20 Cloudy 34 1 32 0 93 93 WSW 10 17 29.23 990 30 48 N/A
9:50 am 09:50 Cloudy 36 2 32 0 87 87 SW 14 22 29.23 990 30 48 N/A
10:20 am 10:20 Cloudy with Drizzle 36 2 32 0 87 87 SW 12 19 29.23 990 30 48 N/A
10:50 am 10:50 Mostly Cloudy 36 2 32 0 87 87 SW 14 22 29.23 990 30 48 N/A
11:20 am 11:20 Cloudy 36 2 34 1 93 93 SW 15 24 29.26 991 30 48 N/A
11:50 am 11:50 Cloudy with Light Rain 36 2 32 0 87 87 WSW 15 24 29.26 991 30 48 N/A
12:20 pm 12:20 Cloudy with Light Rain/Snow 34 1 32 0 93 93 WSW 12 19 29.29 992 5 8 N/A
12:50 pm 12:50 Cloudy with Light Rain 34 1 34 1 100 100 W 14 22 29.29 992 30 48 N/A
1:20 pm 13:20 Cloudy 34 1 32 0 93 93 W 14 22 29.29 992 30 48 N/A
1:50 pm 13:50 Mostly Cloudy 36 2 32 0 87 87 W 15 24 29.32 993 30 48 N/A
2:20 pm 14:20 Cloudy 36 2 34 1 93 93 W 13 20 29.32 993 30 48 N/A
2:50 pm 14:50 Mostly Cloudy 36 2 34 1 93 93 WSW 14 22 29.32 993 30 48 N/A
3:20 pm 15:20 Mostly Cloudy 36 2 32 0 87 87 WSW 15 24 29.35 994 30 48 N/A
3:50 pm 15:50 Mostly Cloudy 36 2 32 0 87 87 WSW 15 24 29.35 994 30 48 N/A
4:20 pm 16:20 Mostly Cloudy 36 2 32 0 87 87 WSW 18 30 29.35 994 30 48 N/A
4:50 pm 16:50 Mostly Cloudy 36 2 32 0 87 87 WSW 15 24 29.38 995 30 48 N/A
5:20 pm 17:20 Mostly Cloudy 36 2 32 0 87 87 SW 12 19 29.38 995 30 48 N/A
5:50 pm 17:50 Mostly Cloudy 36 2 32 0 87 87 SW 13 20 29.41 996 30 48 N/A

Powered by AerisWeather